Location: Wapato
(46.4478°N, 120.4212°W)
Time: 17:46:00
(UTC+00:00)

Explorer 7 - Pass Details

Date: 17 May 2026
Orbit: 426 x 534 km, 50.2° (Epoch: 9 June)

Event Time Altitude Azimuth Distance (km) Brightness Sun altitude
Rises 14:58:32 0° 279° (W) 2,478 9.6 24.2°
Reaches altitude 10° 15:00:42 10° 286° (WNW) 1,623 8.8 24.6°
Maximum altitude 15:04:15 45° 0° (N) 665 7.6 25.2°
Drops below altitude 10° 15:07:56 10° 74° (ENE) 1,689 10.9 25.8°
Sets 15:10:14 0° 81° (E) 2,592 11.6 26.2°
